• In Uzbekistan
  • List of Countries
  • For 7 days
  • Water Temperature
  • Satellite Maps
  • Weather Map
  • Weather Widgets
  • user-avatar
    Login

    Hourly Weather Santa Fe

    Today, 25 February, Saturday

    Time Temperature Precipitation Wind Pressure Humidity
    00:00 +28°C° 0 mm 2 mps 756 mmHg 60%
    01:00 +28°C° 0 mm 2 mps 756 mmHg 61%
    02:00 +27°C° 0 mm 2 mps 756 mmHg 61%
    03:00 +27°C° 0 mm 2 mps 756 mmHg 63%
    04:00 +27°C° 0 mm 2 mps 756 mmHg 65%
    05:00 +26°C° 0 mm 2 mps 756 mmHg 67%
    06:00 +28°C° 0 mm 2 mps 756 mmHg 63%
    07:00 +30°C° 0 mm 1 mps 756 mmHg 59%
    08:00 +32°C° 0 mm 1 mps 757 mmHg 54%
    09:00 +34°C° 0 mm 1 mps 756 mmHg 48%
    10:00 +35°C° 0 mm 1 mps 756 mmHg 42%
    11:00 +35°C° 0 mm 0 mps 756 mmHg 37%
    12:00 +37°C° 0 mm 1 mps 755 mmHg 35%
    13:00 +39°C° 0 mm 1 mps 755 mmHg 34%
    14:00 +39°C° 0 mm 2 mps 754 mmHg 32%
    15:00 +39°C° 0 mm 2 mps 754 mmHg 33%
    16:00 +38°C° 0 mm 3 mps 754 mmHg 33%
    17:00 +38°C° 0 mm 3 mps 754 mmHg 34%
    18:00 +36°C° 0 mm 3 mps 754 mmHg 39%
    19:00 +34°C° 0 mm 3 mps 754 mmHg 44%
    20:00 +31°C° 0 mm 3 mps 754 mmHg 49%
    21:00 +31°C° 0 mm 3 mps 754 mmHg 51%
    22:00 +30°C° 0 mm 3 mps 755 mmHg 53%
    23:00 +30°C° 0 mm 3 mps 755 mmHg 55%

    Tomorrow, 26 February, Sunday

    Time Temperature Precipitation Wind Pressure Humidity
    00:00 +29°C° 0 mm 3 mps 755 mmHg 56%
    01:00 +29°C° 0 mm 3 mps 755 mmHg 58%
    02:00 +29°C° 0 mm 3 mps 755 mmHg 59%
    03:00 +28°C° 0 mm 3 mps 755 mmHg 61%
    04:00 +28°C° 0 mm 3 mps 755 mmHg 62%
    05:00 +27°C° 0 mm 3 mps 755 mmHg 64%
    06:00 +28°C° 0 mm 3 mps 755 mmHg 61%
    07:00 +30°C° 0 mm 3 mps 756 mmHg 58%
    08:00 +32°C° 0 mm 4 mps 756 mmHg 55%
    09:00 +34°C° 0 mm 4 mps 756 mmHg 48%
    10:00 +36°C° 0 mm 4 mps 756 mmHg 42%
    11:00 +38°C° 0 mm 4 mps 756 mmHg 36%
    12:00 +39°C° 0 mm 3 mps 755 mmHg 33%
    13:00 +39°C° 0 mm 3 mps 755 mmHg 31%
    14:00 +40°C° 0 mm 3 mps 754 mmHg 28%
    15:00 +40°C° 0 mm 4 mps 754 mmHg 29%
    16:00 +40°C° 0 mm 4 mps 753 mmHg 30%
    17:00 +38°C° 0 mm 4 mps 753 mmHg 31%
    18:00 +36°C° 0 mm 4 mps 753 mmHg 36%
    19:00 +35°C° 0 mm 4 mps 754 mmHg 40%
    20:00 +33°C° 0 mm 4 mps 754 mmHg 45%
    21:00 +32°C° 0 mm 5 mps 754 mmHg 45%
    22:00 +32°C° 0 mm 5 mps 755 mmHg 46%
    23:00 +32°C° 0 mm 5 mps 755 mmHg 47%

    Day after tomorrow, 27 February, Monday

    Time Temperature Precipitation Wind Pressure Humidity
    00:00 +30°C° 0 mm 5 mps 755 mmHg 48%
    01:00 +29°C° 0 mm 4 mps 755 mmHg 49%
    02:00 +28°C° 0 mm 4 mps 754 mmHg 50%
    03:00 +28°C° 0 mm 4 mps 755 mmHg 52%
    04:00 +27°C° 0 mm 3 mps 755 mmHg 54%
    05:00 +26°C° 0 mm 3 mps 755 mmHg 56%
    06:00 +27°C° 0 mm 4 mps 755 mmHg 55%
    07:00 +28°C° 0 mm 4 mps 755 mmHg 54%
    08:00 +30°C° 0 mm 5 mps 756 mmHg 53%
    09:00 +33°C° 0 mm 4 mps 755 mmHg 47%
    10:00 +35°C° 0 mm 3 mps 755 mmHg 42%
    11:00 +37°C° 0 mm 3 mps 755 mmHg 36%
    12:00 +38°C° 0 mm 3 mps 754 mmHg 33%
    13:00 +39°C° 0 mm 2 mps 754 mmHg 29%
    14:00 +40°C° 0 mm 2 mps 753 mmHg 26%
    15:00 +40°C° 0 mm 2 mps 753 mmHg 26%
    16:00 +39°C° 0 mm 3 mps 752 mmHg 27%
    17:00 +39°C° 0 mm 3 mps 752 mmHg 27%
    18:00 +37°C° 0 mm 3 mps 752 mmHg 33%
    19:00 +35°C° 0 mm 4 mps 752 mmHg 38%
    20:00 +33°C° 0 mm 4 mps 753 mmHg 44%
    21:00 +32°C° 0 mm 4 mps 753 mmHg 45%
    22:00 +30°C° 0 mm 4 mps 753 mmHg 47%
    23:00 +30°C° 0 mm 4 mps 753 mmHg 49%

    28 February, Tuesday

    Time Temperature Precipitation Wind Pressure Humidity
    00:00 +29°C° 0 mm 3 mps 753 mmHg 50%
    01:00 +29°C° 0 mm 3 mps 753 mmHg 51%
    02:00 +28°C° 0 mm 3 mps 753 mmHg 52%
    03:00 +28°C° 0 mm 3 mps 753 mmHg 53%
    04:00 +27°C° 0 mm 3 mps 753 mmHg 54%
    05:00 +27°C° 0 mm 2 mps 753 mmHg 55%
    06:00 +28°C° 0 mm 2 mps 753 mmHg 53%
    07:00 +29°C° 0 mm 2 mps 754 mmHg 51%
    08:00 +30°C° 0 mm 2 mps 754 mmHg 49%
    09:00 +32°C° 0 mm 2 mps 754 mmHg 45%
    10:00 +34°C° 0 mm 2 mps 753 mmHg 42%
    11:00 +35°C° 0 mm 1 mps 753 mmHg 38%
    12:00 +37°C° 0 mm 2 mps 752 mmHg 35%
    13:00 +39°C° 0 mm 2 mps 751 mmHg 31%
    14:00 +40°C° 0 mm 2 mps 751 mmHg 28%
    15:00 +40°C° 0 mm 2 mps 750 mmHg 28%
    16:00 +40°C° 0 mm 2 mps 750 mmHg 28%
    17:00 +39°C° 0 mm 2 mps 750 mmHg 28%
    18:00 +37°C° 0 mm 2 mps 750 mmHg 33%
    19:00 +35°C° 0 mm 3 mps 750 mmHg 37%
    20:00 +33°C° 0 mm 3 mps 750 mmHg 42%
    21:00 +31°C° 0.1 mm 3 mps 750 mmHg 46%
    22:00 +30°C° 0.1 mm 3 mps 751 mmHg 51%
    23:00 +29°C° 0.1 mm 3 mps 751 mmHg 55%

    1 March, Wednesday

    Time Temperature Precipitation Wind Pressure Humidity
    00:00 +29°C° 0.3 mm 3 mps 751 mmHg 58%
    01:00 +28°C° 0.3 mm 3 mps 750 mmHg 60%
    02:00 +28°C° 0.3 mm 2 mps 750 mmHg 62%
    03:00 +27°C° 0.7 mm 2 mps 750 mmHg 65%
    04:00 +27°C° 0.7 mm 2 mps 750 mmHg 68%
    05:00 +26°C° 0.7 mm 1 mps 750 mmHg 70%
    06:00 +28°C° 0 mm 1 mps 751 mmHg 65%
    07:00 +30°C° 0 mm 1 mps 751 mmHg 60%
    08:00 +31°C° 0 mm 2 mps 751 mmHg 54%
    09:00 +34°C° 0 mm 1 mps 751 mmHg 46%
    10:00 +36°C° 0 mm 1 mps 751 mmHg 39%
    11:00 +40°C° 0 mm 1 mps 751 mmHg 31%
    12:00 +40°C° 0 mm 1 mps 750 mmHg 29%
    13:00 +41°C° 0 mm 1 mps 750 mmHg 27%
    14:00 +41°C° 0 mm 2 mps 749 mmHg 25%
    15:00 +41°C° 0 mm 2 mps 749 mmHg 25%
    16:00 +41°C° 0 mm 2 mps 748 mmHg 26%
    17:00 +41°C° 0 mm 2 mps 748 mmHg 26%
    18:00 +39°C° 0 mm 2 mps 748 mmHg 30%
    19:00 +37°C° 0 mm 3 mps 749 mmHg 34%
    20:00 +35°C° 0 mm 3 mps 749 mmHg 37%
    21:00 +34°C° 0 mm 3 mps 749 mmHg 40%
    22:00 +33°C° 0 mm 3 mps 750 mmHg 42%
    23:00 +31°C° 0 mm 3 mps 750 mmHg 44%

    2 March, Thursday

    Time Temperature Precipitation Wind Pressure Humidity
    00:00 +31°C° 0 mm 3 mps 750 mmHg 45%
    01:00 +30°C° 0 mm 3 mps 749 mmHg 46%
    02:00 +30°C° 0 mm 3 mps 749 mmHg 47%
    03:00 +30°C° 0 mm 3 mps 749 mmHg 48%
    04:00 +29°C° 0 mm 3 mps 750 mmHg 49%
    05:00 +29°C° 0 mm 3 mps 750 mmHg 49%
    06:00 +30°C° 0 mm 3 mps 750 mmHg 48%
    07:00 +33°C° 0 mm 4 mps 751 mmHg 47%
    08:00 +34°C° 0 mm 4 mps 751 mmHg 46%
    09:00 +36°C° 0 mm 5 mps 751 mmHg 41%
    10:00 +39°C° 0 mm 5 mps 751 mmHg 36%
    11:00 +42°C° 0 mm 6 mps 751 mmHg 30%
    12:00 +42°C° 0 mm 5 mps 750 mmHg 29%
    13:00 +43°C° 0 mm 5 mps 750 mmHg 28%
    14:00 +43°C° 0 mm 5 mps 749 mmHg 26%
    15:00 +42°C° 0 mm 4 mps 749 mmHg 28%
    16:00 +42°C° 0 mm 4 mps 748 mmHg 29%
    17:00 +40°C° 0 mm 3 mps 748 mmHg 31%
    18:00 +39°C° 0 mm 3 mps 749 mmHg 33%
    19:00 +37°C° 0 mm 3 mps 749 mmHg 35%
    20:00 +36°C° 0 mm 3 mps 749 mmHg 38%
    21:00 +35°C° 0.1 mm 3 mps 750 mmHg 41%
    22:00 +35°C° 0.1 mm 3 mps 750 mmHg 44%
    23:00 +34°C° 0.1 mm 4 mps 750 mmHg 47%
    Show more